Regional Weather Roundup
Issued by NWS

Home | Current Version | Previous Version | Text Only | Print | Product List | Glossary Off
Versions: 1 2 3 4 5 6 7 8 9 10 11 12 13 14 15 16 17 18 19 20 21 22 23 24 25 26 27 28 29 30 31 32 33 34 35 36 37 38 39 40 41 42 43 44 45 46 47 48 49 50

000
ASUS43 KMKX 290711
RWRWI

WISCONSIN REGIONAL WEATHER ROUNDUP
NATIONAL WEATHER SERVICE MILWAUKEE/SULLIVAN WI
100 AM CST SAT NOV 29 2014

NOTE: "FAIR" INDICATES FEW OR NO CLOUDS BELOW 12,000 FEET WITH NO
SIGNIFICANT WEATHER AND/OR OBSTRUCTIONS TO VISIBILITY.

WIZ001-002-006>008-014>016-023>028-290800-
NORTHWEST WISCONSIN

CITY           SKY/WX    TMP DP  RH WIND       PRES   REMARKS
SUPERIOR ARPT  CLOUDY    20  15  83 CALM      29.69F
ASHLAND        CLOUDY    19  15  84 CALM      29.72F
HAYWARD        CLEAR     19  15  84 S8        29.68F WCI   9
SIREN          CLEAR     19  16  87 SE6       29.67F WCI  11
CUMBERLAND     PTCLDY    18  16  93 SE8       29.68F WCI   7
RICE LAKE      MOCLDY    19  16  90 E3        29.72S
CHETEK         CLOUDY    18  16  91 CALM      29.71S
LADYSMITH      CLEAR     19  17  90 E3        29.73S
EAU CLAIRE     PTCLDY    21  18  88 E6        29.70F WCI  13
MENOMONIE      CLEAR     19  18  93 E6        29.69F WCI  11
NEW RICHMOND   CLEAR     20  17  91 E6        29.67F WCI  12
OSCEOLA        PTCLDY    21  18  91 E8        29.69F WCI  11
$$

WIZ003>005-009-010-017-018-290800-
NORTH CENTRAL WISCONSIN

CITY           SKY/WX    TMP DP  RH WIND       PRES   REMARKS
MANITOWISH WTR CLOUDY    16  14  94 S7        29.69F WCI   6
ARBOR VITAE    CLOUDY    18  15  89 SE6       29.70F WCI  10
WOODRUFF       CLOUDY    18  15  89 SE6       29.70F WCI  10
RHINELANDER    CLOUDY    15  13  91 SE6       29.73F WCI   6
EAGLE RIVER    CLOUDY    16  12  86 S3        29.71F
LAND O LAKES   CLOUDY    17  15  90 S7        29.72F WCI   8
PHILLIPS       MOCLDY    17  14  89 SE3       29.70F
TOMAHAWK       CLOUDY    17  15  90 CALM      29.73F
MEDFORD        CLOUDY    19  17  93 E5        29.71F FOG     WCI  12
MERRILL        CLOUDY    19  17  93 CALM      29.74F
$$

WIZ029-030-035-036-043>047-290800-
CENTRAL WISCONSIN

CITY           SKY/WX    TMP DP  RH WIND       PRES   REMARKS
WAUSAU         CLOUDY    20  18  92 E5        29.74F WCI  13
MOSINEE        CLOUDY    21  21 100 E6        29.75F FOG     WCI  14
MARSHFIELD     CLOUDY    22  19  89 E7        29.72F FOG     WCI  13
STEVENS POINT  CLOUDY    21  19  93 SE6       29.75F FOG     WCI  13
WAUPACA        CLOUDY    26  23  87 CALM      29.79F FOG
WAUTOMA        CLOUDY    25  24  96 CALM      29.78F FOG
WISC RAPIDS    CLOUDY    23  20  88 E6        29.76F WCI  16
CAMP DOUGLAS   CLOUDY    22  22 100 SE9       29.73F WCI  12
$$

WIZ011>013-019>022-031-037>040-048>050-290800-
NORTHEAST WISCONSIN

CITY           SKY/WX    TMP DP  RH WIND       PRES   REMARKS
ANTIGO         CLOUDY    18  17  96 S7        29.74F FOG     WCI   9
SHAWANO        CLOUDY    23  21  91 CALM      29.81F
OCONTO         CLOUDY    19  19 100 CALM      29.82F
STURGEON BAY   CLEAR     27  25  93 S7        29.83F WCI  19
GREEN BAY      MIX PCPN  27  25  92 CALM      29.81F FOG
MANITOWOC      MIX PCPN  31  29  92 S9        29.82F WCI  23
APPLETON       CLOUDY    30  28  93 SE9       29.79F FOG     WCI  22
CLINTONVILLE   CLOUDY    23  21  93 N3        29.80F
OSHKOSH        CLOUDY    31  27  85 MISG      29.79F FOG
$$

WIZ032>034-041-042-053>061-290800-
SOUTHWEST WISCONSIN

CITY           SKY/WX    TMP DP  RH WIND       PRES   REMARKS
LA CROSSE      PTCLDY    25  21  85 E7        29.71F WCI  17
SPARTA         PTCLDY    21  21  98 CALM      29.73F FOG
VIROQUA        CLOUDY    24  24 100 E7        29.69F WCI  16
BOSCOBEL       CLEAR     19  16  88 CALM      29.73F FOG
PRAIRIE DU CHI CLEAR     27  24  90 E3        29.71F FOG
PLATTEVILLE    CLEAR     27  26  96 CALM      29.73F
$$

WIZ056-057-062-063-064-067-068-290800-
SOUTH CENTRAL WISCONSIN

CITY           SKY/WX    TMP DP  RH WIND       PRES   REMARKS
REEDSBURG      PTCLDY    22  22  96 CALM      29.74F FOG
BARABOO/DELLS  PTCLDY    24  23  95 E3        29.75S FOG
LONE ROCK      PTCLDY    24  18  77 E7        29.75F HAZE    WCI  16
MINERAL POINT  CLEAR     32  30  93 SE10      29.72F FOG     WCI  24
MADISON        PTCLDY    29  26  89 S8        29.77F FOG     WCI  21
MIDDLETON      PTCLDY    31  29  95 SE6       29.75F WCI  25
WATERTOWN      CLOUDY    29  29 100 E3        29.78F FOG
MONROE         CLEAR     30  30 100 S10       29.75F FOG     WCI  21
JANESVILLE     CLEAR     34  32  93 S10       29.78F WCI  26
$$

WIZ051-052-058>065-066-070>072-290800-
SOUTHEAST WISCONSIN

CITY           SKY/WX    TMP DP  RH WIND       PRES   REMARKS
MILWAUKEE      CLOUDY    33  28  81 SE7       29.83F WCI  27
WAUKESHA       MOCLDY    28  28 100 SE6       29.81F FOG     WCI  22
MILWAUKEE/TIMM CLOUDY    32  28  86 SE5       29.83F WCI  27
RACINE         CLOUDY    34  29  82 S10       29.84F WCI  26
BURLINGTON     MOCLDY    27  26  99 CALM      29.80F FOG
KENOSHA        MOCLDY    32  28  85 SE8       29.83F WCI  25
FOND DU LAC    CLOUDY    31  27  85 S8        29.79F WCI  23
SHEBOYGAN      LGT RAIN  33  30  88 S5        29.83F WCI  29
WEST BEND      CLOUDY    30  28  93 E5        29.81F FOG     WCI  25
JUNEAU         CLOUDY    29  28  94 SE7       29.79F FOG     WCI  22
$$

LSZ147-162-290800-
LAKE SUPERIOR

STATION/POSITION TIME  TEMP    WIND        PRES    WAVE
                       AIR SEA DIR/SP/G            HT/PER
                 (UTC) (F)     (DEG/KT/KT) (MB)    (FT/S)
DEVILS ISLAND    0700   22     170/  6/  7 1007.9F
PORT WING        0640   20      70/  2/  3 1006.8F
SAXON HARBOR     0600   21      CALM  /  5 1007.8
$$

LMZ867-665-643>646-290800-
LAKE MICHIGAN

STATION/POSITION TIME  TEMP    WIND        PRES    WAVE
                       AIR SEA DIR/SP/G            HT/PER
                 (UTC) (F)     (DEG/KT/KT) (MB)    (FT/S)
CHAMBERS ISLAND  0600   29      CALM  /  6 1011.2F
N MID LAKE BUOY  0650   32 42  170/ 21/ 25 1011.5F   7/ 7
NORTHPORT PIER   0623   32     160/  8/ 23 1010.8F
SISTER BAY       0643             CALM       N/A
ALGOMA LAKESHORE 0513          240/ 11/ 13   N/A
KEWAUNEE LAKESHO 0600   31     200/  8/ 10 1010.5F
SHEBOYGAN LAKESH 0700   36 35  180/ 16/ 17 1010.8F
PORT WASHINGTON  0600   34     200/  5/  8 1012.2F
MILWAUKEE LAKESH 0600   35     170/  9/ 10   N/A
S MID LAKE BUOY  0650   38 42  180/ 17/ 21 1012.4F   5/ 6
KENOSHA   LAKESH 0700   35     180/ 11/ 15 1010.2F
$$

TC  - TEMPERATURE IN CELSIUS
VSB - VISIBILITY IN STATUTE MILES
WCI - WIND CHILL INDEX
HX  - HEAT INDEX



USA.gov is the U.S. government's official web portal to all federal, state and local government web resources and services.